Home > Weather > Duluth > Past weeks

Flag for USA Weather for the Past 2 Weeks in Duluth, Minnesota, USA

Now
61 °F

Scattered clouds.


Feels Like: 61 °F
Forecast: 44 / 65 °F
Wind: 14 mph from North

Location: Sky Harbor Airport

Current Time: May 3, 2016 at 4:11:11 PM

Latest Report: May 3, 2016 at 3:33 PM


Visibility: 10 mi

Pressure: 29.66 "Hg

Humidity: 34%

Dew Point: 32 °F

Location of DuluthLocation

Historic Weather in Duluth — Graph

°F

Duluth Temperature Yesterday

Maximum temperature yesterday: 46 °F (at 2:54 PM)
Minimum temperature yesterday: 34 °F (at 5:14 AM)
Average temperature yesterday: 41 °F

High & Low Weather Summary for the Past Weeks

 TemperatureHumidityPressure
High66 °F (May 3, 12:34 PM)100% (Apr 21, 9:54 PM)30.44 "Hg (Apr 21, 9:54 PM)
Low32 °F (Apr 29, 5:53 AM)28% (May 3, 2:53 PM)29.65 "Hg (May 3, 2:14 PM)
Average40 °F84%30.10 "Hg
* Reported Apr 18 2:14 PM — May 3 2:53 PM, Duluth, Weather by CustomWeather, © 2016

Note: Actual official high and low records may vary slightly from our data, if they occured in-between our weather recording intervals... More about our weather records

Advertising

Duluth Weather History for the Previous 24 Hours

Scroll right to see more
 ConditionsComfort  
Time TempWeatherWind HumidityBarometerVisibility
2:53 PM
Tue, May 3
64 °FScattered clouds.9 mph28%29.66 "Hg10 mi
2:34 PM63 °FPartly sunny.14 mph37%29.66 "Hg10 mi
2:14 PM64 °FScattered clouds.15 mph40%29.65 "Hg10 mi
1:53 PM66 °FScattered clouds.20 mph35%29.66 "Hg10 mi
1:34 PM64 °FPartly sunny.18 mph40%29.67 "Hg10 mi
1:14 PM64 °FPartly sunny.24 mph40%29.68 "Hg10 mi
12:53 PM64 °FScattered clouds.28 mph37%29.68 "Hg10 mi
12:34 PM66 °FSunny.21 mph35%29.68 "Hg10 mi
12:14 PM64 °FSunny.23 mph37%29.68 "Hg10 mi
11:53 AM63 °FScattered clouds.22 mph39%29.69 "Hg10 mi
11:34 AM63 °FSunny.17 mph39%29.71 "Hg10 mi
11:14 AM63 °FScattered clouds.15 mph39%29.72 "Hg10 mi
10:53 AM63 °FLight rain. Scattered clouds.15 mph39%29.73 "Hg10 mi
10:34 AM61 °FScattered clouds.15 mph42%29.74 "Hg10 mi
10:14 AM61 °FPartly sunny.13 mph42%29.76 "Hg10 mi
9:53 AM59 °FPartly sunny.9 mph48%29.76 "Hg10 mi
9:34 AM57 °FPartly sunny.13 mph51%29.76 "Hg10 mi
9:13 AM57 °FSunny.13 mph51%29.77 "Hg10 mi
8:54 AM55 °FScattered clouds.12 mph55%29.78 "Hg10 mi
8:34 AM55 °FPartly sunny.12 mph55%29.79 "Hg10 mi
8:14 AM54 °FPartly sunny.10 mph58%29.80 "Hg10 mi
7:53 AM54 °FScattered clouds.12 mph58%29.81 "Hg10 mi
7:13 AM52 °FSunny.9 mph62%29.81 "Hg10 mi
6:34 AM48 °FClear.10 mph66%29.82 "Hg10 mi
5:54 AM46 °FClear.10 mph71%29.83 "Hg10 mi
5:34 AM46 °FClear.13 mph71%29.83 "Hg10 mi
5:13 AM46 °FClear.13 mph66%29.84 "Hg10 mi
4:54 AM45 °FClear.13 mph71%29.84 "Hg10 mi
4:34 AM46 °FClear.13 mph66%29.85 "Hg10 mi
4:13 AM45 °FClear.12 mph71%29.85 "Hg10 mi
3:54 AM45 °FClear.13 mph71%29.86 "Hg10 mi
3:34 AM45 °FClear.10 mph71%29.87 "Hg10 mi
3:13 AM43 °FClear.10 mph81%29.88 "Hg10 mi
2:54 AM43 °FClear.8 mph81%29.89 "Hg10 mi
2:34 AM43 °FClear.8 mph81%29.90 "Hg10 mi
1:54 AM41 °FClear.5 mph87%29.92 "Hg10 mi
1:34 AM41 °FClear.5 mph87%29.93 "Hg10 mi
1:13 AM43 °FClear.5 mph81%29.94 "Hg10 mi
12:34 AM43 °FClear.3 mph81%29.95 "Hg10 mi
11:53 PM
Mon, May 2
43 °FClear.3 mph81%29.96 "Hg10 mi
11:34 PM43 °FClear.No wind81%29.97 "Hg10 mi
10:54 PM41 °FClear.No wind87%29.98 "Hg10 mi
10:34 PM39 °FClear.No wind87%29.98 "Hg10 mi
9:54 PM39 °FClear.No wind87%29.99 "Hg10 mi
9:34 PM41 °FClear.No wind87%30.00 "Hg10 mi
9:13 PM41 °FSunny.7 mph87%29.99 "Hg10 mi
8:34 PM41 °FSunny.7 mph87%29.99 "Hg10 mi
8:13 PM41 °FSunny.6 mph87%29.99 "Hg10 mi
7:54 PM41 °FSunny.5 mph87%29.99 "Hg10 mi
7:34 PM43 °FSunny.5 mph81%29.98 "Hg10 mi
7:13 PM43 °FSunny.No wind76%29.98 "Hg10 mi
6:54 PM43 °FSunny.6 mph81%29.99 "Hg10 mi
6:34 PM43 °FSunny.5 mph81%29.99 "Hg10 mi
6:13 PM43 °FSunny.5 mph81%29.99 "Hg10 mi
5:54 PM45 °FSunny.3 mph76%30.00 "Hg10 mi
5:13 PM45 °FSunny.3 mph76%30.01 "Hg10 mi
4:54 PM46 °FSunny.No wind71%30.01 "Hg10 mi
4:13 PM45 °FSunny.No wind76%30.02 "Hg10 mi
Weather by CustomWeather, © 2016

See weather overviewHow to use our weather pages